Terminal Aerodrome Forecast
Issued by NWS

Current Version | Previous Version | Graphics & Text | Print | Product List | Glossary On
Versions: 1 2 3 4 5 6 7 8 9 10 11 12 13 14 15 16 17 18 19 20 21 22 23 24 25 26 27 28 29 30 31 32
000
FTUS41 KRNK 220631 AAA
TAFLWB
TAF AMD
KLWB 220631Z 2207/2306 00000KT 3SM BR SCT001 OVC030
     FM220800 00000KT 1SM BR BKN001 OVC025
      TEMPO 2208/2212 1/4SM FG VV001
     FM221500 04004KT 3SM -RA BR BKN007 OVC015
     FM222100 10005KT 5SM -RA BR SCT009 OVC015
     FM230300 12007KT 1SM SHRA BR BKN009 OVC013=

USA.gov is the U.S. government's official web portal to all federal, state and local government web resources and services.